• Join FlightAware (Why Join?)
  • Login
  • US Flag GB Flag 
20:10 EDT


 

Airport Tracker/Info


-or-


 

Live Flight TrackerFlight Track Log ✈ UAL3740 ✈ 13-Apr-2013 ✈ KIAD - KPVD

Flight Track Log - Related Links

Times and Time Zones

All times are in EDT time to prevent confusion due to time zone crossing. See the UAL3740 flight status page for this flight to view local times or setup timezone preferences in your user account.

Time Position Orientation Groundspeed Altitude Reporting Facility
EDT Latitude Longitude Course Direction KTS MPH feet Rate Location/Type
08:17 38.9833 -77.4500 360° North 190 219 2,300  Level Potomac TRACON
08:18 39.0500 -77.4500 360° North 249 287 5,300 3,120 Climbing Potomac TRACON
08:19 39.1167 -77.4500 360° North 257 296 8,600 2,400 Climbing Potomac TRACON
08:20 39.1667 -77.3667 52° Northeast 345 397 10,000 900 Climbing Potomac TRACON
08:21 39.1333 -77.2500 110° East 370 426 10,400 1,140 Climbing Potomac TRACON
08:22 39.0833 -77.1500 123° Southeast 375 432 12,200 2,520 Climbing Potomac TRACON
08:24 39.1008 -76.8406 86° East 396 456 18,600 2,340 Climbing Washington Center
08:25 39.1147 -76.6883 83° East 402 463 19,900 1,440 Climbing Washington Center
08:26 39.1264 -76.5333 84° East 417 480 21,500 1,500 Climbing Washington Center
08:27 39.1403 -76.3650 84° East 443 510 23,000 720 Climbing Washington Center
08:28 39.1622 -76.1644 82° East 493 567 23,000 540 Level Washington Center
08:29 39.1817 -75.9772 82° East 521 600 24,100 900 Climbing Washington Center
08:30 39.2550 -75.8142 60° Northeast 521 600 24,800 1,200 Climbing Washington Center
08:31 39.3572 -75.6747 47° Northeast 506 582 26,600 1,620 Climbing Washington Center
08:32 39.4594 -75.5378 46° Northeast 511 588 28,100 1,260 Climbing Washington Center
08:33 39.5614 -75.3978 47° Northeast 516 594 29,200 1,200 Climbing Washington Center
08:34 39.6631 -75.2600 46° Northeast 526 605 30,500 960 Climbing Washington Center
08:35 39.6917 -75.2222 45° Northeast 552 635 30,600 1,140 Climbing New York Center
08:36 39.8039 -75.0647 47° Northeast 563 648 32,100 1,200 Climbing New York Center
08:37 39.9092 -74.9194 47° Northeast 557 641 33,000 420 Climbing New York Center
08:38 40.0036 -74.7842 48° Northeast 559 643 33,000  Level New York Center
08:39 40.1036 -74.5944 55° Northeast 568 654 33,000  Level New York Center
08:40 40.1767 -74.4003 64° Northeast 582 670 33,000  Level New York Center
08:41 40.2469 -74.2083 64° Northeast 588 677 33,000 -780 Level New York Center
08:43 40.3742 -73.8619 64° Northeast 589 678 30,900 -1,800 Descending Boston Center
08:44 40.4389 -73.6806 65° Northeast 562 647 27,900 -2,040 Descending Boston Center
08:44 40.4947 -73.5125 66° East 554 638 27,000 -540 Descending Boston Center
08:45 40.5672 -73.3142 64° Northeast 546 628 26,900  Descending Boston Center
08:46 40.6331 -73.1347 64° Northeast 541 623 27,000 -960 Climbing Boston Center
08:47 40.6944 -72.9547 66° East 541 623 25,000 -2,280 Descending Boston Center
08:48 40.7597 -72.7825 63° Northeast 541 623 22,500 -2,400 Descending Boston Center
08:50 40.8164 -72.6183 65° Northeast 521 600 20,200 -2,280 Descending Boston Center
08:50 40.8644 -72.4703 67° East 489 563 18,000 -2,280 Descending Boston Center
08:51 40.9186 -72.3192 65° Northeast 465 535 15,800 -2,340 Descending Boston Center
08:52 40.9683 -72.1761 65° Northeast 462 532 13,600 -2,400 Descending Boston Center
08:53 41.0219 -72.0164 66° East 452 520 11,300 -1,740 Descending Boston Center
08:54 41.0861 -71.9058 52° Northeast 389 448 10,100 -720 Descending Boston Center
08:55 41.1650 -71.8500 28° Northeast 327 376 9,900 -900 Descending Boston Center
08:56 41.2397 -71.7942 29° Northeast 310 357 8,300 -1,620 Descending Boston Center
08:57 41.3144 -71.7464 26° Northeast 302 348 6,700 -1,560 Descending Boston Center
08:58 41.3933 -71.6903 28° Northeast 296 341 5,200 -1,020 Descending Boston Center
08:59 41.4536 -71.6453 29° Northeast 245 282 4,700 -720 Descending Boston Center
09:00 41.5033 -71.6086 29° Northeast 206 237 3,800 -840 Descending Boston Center
09:01 41.5428 -71.5803 28° Northeast 165 190 3,100 -840 Descending Boston Center
09:02 41.5819 -71.5492 31° Northeast 160 184 2,100 -600 Descending Boston Center
09:03 41.6150 -71.5211 32° Northeast 160 184 2,000 -240 Descending Boston Center
09:04 41.6483 -71.4900 35° Northeast 146 168 1,700 -600 Descending Boston Center
09:05 41.6792 -71.4644 32° Northeast 124 143 900 -780 Descending Boston Center
09:06 41.7061 -71.4419 32° Northeast 125 144 200 -780 Descending Boston Center